GJS1282 KEWR-KPIT

Flight info

Callsign GJS1282
Flight time 0h 57m
Altitude 27000
Route ZIMMZ Q42 MIKYG Q480 VINSE DEMME5
Aircraft CRJ7/M-VGDW/C

Departure

Time 2026-04-30 18:08
Airport Newark Liberty International Airport (KEWR)

Arrival

Time 2026-04-30 19:05
Airport Pittsburgh International Airport (KPIT)
Time Latitude Longitude Altitude Speed Heading
2026-04-30 17:46 40.68645 -74.17878 22 ft 0 kts 274°
2026-04-30 17:54 40.68641 -74.17806 23 ft 3 kts 274°
2026-04-30 17:55 40.68641 -74.17781 21 ft 0 kts 308°
2026-04-30 17:56 40.68667 -74.17716 20 ft 0 kts 144°
2026-04-30 17:58 40.68666 -74.17715 20 ft 1 kts 142°
2026-04-30 17:59 40.68646 -74.17687 26 ft 0 kts 119°
2026-04-30 18:00 40.68577 -74.17470 24 ft 14 kts 75°
2026-04-30 18:00 40.68836 -74.17281 21 ft 17 kts 25°
2026-04-30 18:01 40.69069 -74.17132 15 ft 20 kts 26°
2026-04-30 18:02 40.69433 -74.16901 21 ft 18 kts 27°
2026-04-30 18:02 40.69685 -74.16739 17 ft 22 kts 26°
2026-04-30 18:03 40.69804 -74.16645 13 ft 0 kts 78°
2026-04-30 18:05 40.69804 -74.16635 13 ft 1 kts 77°
2026-04-30 18:06 40.70034 -74.16515 13 ft 16 kts 28°
2026-04-30 18:07 40.68964 -74.17049 34 ft 140 kts 204°
2026-04-30 18:08 40.65455 -74.17095 1471 ft 217 kts 181°
2026-04-30 18:09 40.60042 -74.19749 2963 ft 254 kts 257°
2026-04-30 18:10 40.59336 -74.29569 6114 ft 279 kts 268°
2026-04-30 18:11 40.61907 -74.39290 9709 ft 285 kts 288°
2026-04-30 18:11 40.63928 -74.47165 10804 ft 336 kts 286°
2026-04-30 18:12 40.66264 -74.56294 12650 ft 354 kts 285°
2026-04-30 18:13 40.67833 -74.62453 14195 ft 354 kts 285°
2026-04-30 18:13 40.69909 -74.70630 16171 ft 352 kts 284°
2026-04-30 18:14 40.71710 -74.77761 17781 ft 353 kts 284°
2026-04-30 18:15 40.74064 -74.87110 19273 ft 362 kts 283°
2026-04-30 18:15 40.76450 -74.96637 20773 ft 366 kts 283°
2026-04-30 18:16 40.78050 -75.03026 21799 ft 366 kts 283°
2026-04-30 18:16 40.79619 -75.09333 22887 ft 365 kts 283°
2026-04-30 18:17 40.80268 -75.12529 23413 ft 356 kts 271°
2026-04-30 18:17 40.80063 -75.15731 23884 ft 348 kts 257°
2026-04-30 18:17 40.78986 -75.21894 24847 ft 342 kts 255°
2026-04-30 18:18 40.78458 -75.24944 25333 ft 339 kts 257°
2026-04-30 18:18 40.77995 -75.27976 25841 ft 335 kts 258°
2026-04-30 18:18 40.77563 -75.30978 26340 ft 332 kts 258°
2026-04-30 18:18 40.77129 -75.33953 26843 ft 327 kts 258°
2026-04-30 18:19 40.76677 -75.36879 27347 ft 323 kts 255°
2026-04-30 18:19 40.75962 -75.39690 27637 ft 326 kts 249°
2026-04-30 18:19 40.75069 -75.42426 27765 ft 332 kts 246°
2026-04-30 18:19 40.74031 -75.45197 27837 ft 341 kts 244°
2026-04-30 18:20 40.72940 -75.48008 27859 ft 349 kts 244°
2026-04-30 18:20 40.71813 -75.50893 27861 ft 357 kts 244°
2026-04-30 18:20 40.70683 -75.53849 27869 ft 365 kts 245°
2026-04-30 18:20 40.69547 -75.56875 27872 ft 373 kts 245°
2026-04-30 18:21 40.68387 -75.59969 27866 ft 380 kts 245°
2026-04-30 18:21 40.67207 -75.63117 27860 ft 387 kts 245°
2026-04-30 18:21 40.66442 -75.65161 27878 ft 391 kts 245°
2026-04-30 18:21 40.65187 -75.68497 27861 ft 397 kts 245°
2026-04-30 18:22 40.63954 -75.71774 27867 ft 402 kts 245°
2026-04-30 18:22 40.61438 -75.78452 27903 ft 412 kts 245°
2026-04-30 18:22 40.60175 -75.81857 27884 ft 415 kts 247°
2026-04-30 18:23 40.59076 -75.85380 27875 ft 418 kts 250°
2026-04-30 18:23 40.58095 -75.88996 27867 ft 420 kts 251°
2026-04-30 18:23 40.57126 -75.92633 27858 ft 423 kts 251°
2026-04-30 18:23 40.56140 -75.96252 27852 ft 418 kts 250°
2026-04-30 18:24 40.54123 -76.03347 27840 ft 410 kts 250°
2026-04-30 18:24 40.53125 -76.06841 27838 ft 407 kts 250°
2026-04-30 18:24 40.52130 -76.10314 27837 ft 404 kts 250°
2026-04-30 18:25 40.51143 -76.13758 27842 ft 402 kts 250°
2026-04-30 18:25 40.49176 -76.20597 27842 ft 398 kts 250°
2026-04-30 18:25 40.48201 -76.23990 27842 ft 396 kts 250°
2026-04-30 18:26 40.46259 -76.30733 27832 ft 393 kts 250°
2026-04-30 18:26 40.45324 -76.33968 27834 ft 392 kts 250°
2026-04-30 18:26 40.44327 -76.37416 27832 ft 391 kts 250°
2026-04-30 18:27 40.42399 -76.44072 27827 ft 389 kts 250°
2026-04-30 18:27 40.41436 -76.47389 27821 ft 388 kts 250°
2026-04-30 18:28 40.39512 -76.53997 27845 ft 387 kts 250°
2026-04-30 18:28 40.38552 -76.57292 27838 ft 387 kts 250°
2026-04-30 18:28 40.36630 -76.63877 27830 ft 386 kts 250°
2026-04-30 18:29 40.35669 -76.67165 27801 ft 385 kts 250°
2026-04-30 18:29 40.32790 -76.76977 27850 ft 384 kts 250°
2026-04-30 18:30 40.30872 -76.83504 27859 ft 384 kts 250°
2026-04-30 18:30 40.28941 -76.90026 27884 ft 384 kts 250°
2026-04-30 18:31 40.27975 -76.93289 27873 ft 384 kts 250°
2026-04-30 18:31 40.26063 -76.99766 27869 ft 384 kts 250°
2026-04-30 18:32 40.24103 -77.06376 27874 ft 383 kts 250°
2026-04-30 18:32 40.23136 -77.09627 27874 ft 383 kts 250°
2026-04-30 18:32 40.21202 -77.16122 27484 ft 382 kts 250°
2026-04-30 18:33 40.20877 -77.17219 27334 ft 382 kts 250°
2026-04-30 18:33 40.18968 -77.23616 26463 ft 385 kts 250°
2026-04-30 18:33 40.18317 -77.25780 26180 ft 386 kts 250°
2026-04-30 18:34 40.17007 -77.30164 25624 ft 388 kts 250°
2026-04-30 18:34 40.15023 -77.36770 24813 ft 391 kts 249°
2026-04-30 18:34 40.14030 -77.40084 24416 ft 393 kts 249°
2026-04-30 18:35 40.13029 -77.43403 24019 ft 392 kts 249°
2026-04-30 18:35 40.12034 -77.46710 23630 ft 390 kts 249°
2026-04-30 18:35 40.11376 -77.48895 23357 ft 389 kts 249°
2026-04-30 18:36 40.09389 -77.55459 22433 ft 388 kts 249°
2026-04-30 18:36 40.08400 -77.58734 21993 ft 387 kts 249°
2026-04-30 18:36 40.06408 -77.65282 21126 ft 386 kts 249°
2026-04-30 18:37 40.05421 -77.68541 20701 ft 386 kts 249°
2026-04-30 18:37 40.04429 -77.71798 20286 ft 386 kts 249°
2026-04-30 18:37 40.03444 -77.75037 20068 ft 381 kts 249°
2026-04-30 18:37 40.02475 -77.78216 19968 ft 374 kts 249°
2026-04-30 18:38 40.01529 -77.81291 19929 ft 367 kts 249°
2026-04-30 18:38 40.00595 -77.84353 19912 ft 360 kts 249°
2026-04-30 18:38 39.99675 -77.87364 19904 ft 354 kts 249°
2026-04-30 18:38 39.98761 -77.90365 19904 ft 349 kts 249°
2026-04-30 18:39 39.97878 -77.93243 19887 ft 344 kts 249°
2026-04-30 18:39 39.97304 -77.96230 19903 ft 339 kts 263°
2026-04-30 18:39 39.97156 -77.99289 19899 ft 338 kts 268°
2026-04-30 18:39 39.97205 -78.02370 19892 ft 342 kts 271°
2026-04-30 18:40 39.97344 -78.05478 19903 ft 345 kts 271°
2026-04-30 18:40 39.97492 -78.08601 19902 ft 347 kts 271°
2026-04-30 18:40 39.97608 -78.11751 19897 ft 349 kts 270°
2026-04-30 18:40 39.97696 -78.14922 19906 ft 351 kts 270°
2026-04-30 18:41 39.97780 -78.18110 19906 ft 352 kts 270°
2026-04-30 18:41 39.97870 -78.21310 19909 ft 354 kts 270°
2026-04-30 18:41 39.97955 -78.24522 19907 ft 355 kts 270°
2026-04-30 18:41 39.98040 -78.27768 19909 ft 357 kts 270°
2026-04-30 18:42 39.98121 -78.31004 19913 ft 358 kts 270°
2026-04-30 18:42 39.98285 -78.37517 19912 ft 360 kts 270°
2026-04-30 18:42 39.98366 -78.40781 19908 ft 361 kts 270°
2026-04-30 18:45 39.99106 -78.73117 16588 ft 355 kts 271°
2026-04-30 18:45 39.99177 -78.76330 16195 ft 354 kts 270°
2026-04-30 18:45 39.99245 -78.79544 15828 ft 354 kts 271°
2026-04-30 18:46 39.99308 -78.82753 15465 ft 354 kts 271°
2026-04-30 18:46 39.99377 -78.85961 15113 ft 354 kts 271°
2026-04-30 18:46 39.99441 -78.89169 14749 ft 354 kts 271°
2026-04-30 18:46 39.99487 -78.91370 14495 ft 354 kts 271°
2026-04-30 18:47 39.99552 -78.94573 14134 ft 354 kts 271°
2026-04-30 18:47 39.99614 -78.97780 13772 ft 354 kts 271°
2026-04-30 18:47 39.99675 -79.00982 13391 ft 353 kts 271°
2026-04-30 18:47 39.99737 -79.04182 12998 ft 353 kts 271°
2026-04-30 18:48 39.99796 -79.07382 12622 ft 352 kts 271°
2026-04-30 18:48 39.99856 -79.10565 12232 ft 351 kts 272°
2026-04-30 18:48 39.99914 -79.13741 11855 ft 349 kts 271°
2026-04-30 18:48 39.99969 -79.16902 11474 ft 348 kts 271°
2026-04-30 18:49 40.00021 -79.20049 11089 ft 347 kts 271°
2026-04-30 18:49 40.00076 -79.23163 10718 ft 335 kts 272°
2026-04-30 18:49 40.00126 -79.26123 10352 ft 320 kts 272°
2026-04-30 18:49 40.00171 -79.28952 10149 ft 303 kts 272°
2026-04-30 18:50 40.00218 -79.31619 10044 ft 286 kts 272°
2026-04-30 18:50 40.00262 -79.34191 10004 ft 282 kts 272°
2026-04-30 18:50 40.00307 -79.36744 10004 ft 280 kts 272°
2026-04-30 18:50 40.00351 -79.39274 10000 ft 277 kts 272°
2026-04-30 18:51 40.00811 -79.41675 9981 ft 275 kts 297°
2026-04-30 18:51 40.01830 -79.43780 9981 ft 273 kts 303°
2026-04-30 18:51 40.02988 -79.45734 9977 ft 272 kts 308°
2026-04-30 18:51 40.04179 -79.47527 9985 ft 270 kts 309°
2026-04-30 18:52 40.05476 -79.49327 10004 ft 278 kts 313°
2026-04-30 18:52 40.06911 -79.51047 9931 ft 282 kts 316°
2026-04-30 18:52 40.08406 -79.52796 9512 ft 297 kts 316°
2026-04-30 18:52 40.09979 -79.54618 9133 ft 307 kts 316°
2026-04-30 18:53 40.11565 -79.56540 8743 ft 315 kts 314°
2026-04-30 18:53 40.13189 -79.58512 8357 ft 321 kts 315°
2026-04-30 18:53 40.14811 -79.60496 7989 ft 326 kts 315°
2026-04-30 18:53 40.16472 -79.62534 7606 ft 329 kts 315°
2026-04-30 18:54 40.18143 -79.64596 7224 ft 331 kts 315°
2026-04-30 18:54 40.19822 -79.66658 6864 ft 332 kts 315°
2026-04-30 18:54 40.21506 -79.68727 6516 ft 331 kts 315°
2026-04-30 18:54 40.23097 -79.70688 6119 ft 298 kts 314°
2026-04-30 18:55 40.24541 -79.72469 5713 ft 273 kts 315°
2026-04-30 18:55 40.27148 -79.75688 4901 ft 249 kts 315°
2026-04-30 18:55 40.28401 -79.77232 4497 ft 247 kts 315°
2026-04-30 18:56 40.30838 -79.80257 4080 ft 231 kts 315°
2026-04-30 18:56 40.31976 -79.81660 4047 ft 219 kts 315°
2026-04-30 18:56 40.33021 -79.82976 4008 ft 211 kts 315°
2026-04-30 18:57 40.35033 -79.85508 4012 ft 192 kts 315°
2026-04-30 18:57 40.35984 -79.86698 4020 ft 186 kts 316°
2026-04-30 18:57 40.36915 -79.87850 4077 ft 182 kts 315°
2026-04-30 18:58 40.38739 -79.90104 4061 ft 182 kts 315°
2026-04-30 18:58 40.39697 -79.91282 4046 ft 194 kts 316°
2026-04-30 18:58 40.40685 -79.92492 4041 ft 190 kts 316°
2026-04-30 18:59 40.42438 -79.94660 4041 ft 160 kts 315°
2026-04-30 19:00 40.44679 -79.97446 3981 ft 142 kts 315°
2026-04-30 19:00 40.45408 -79.98372 3997 ft 150 kts 315°
2026-04-30 19:00 40.46965 -80.00337 4025 ft 160 kts 315°
2026-04-30 19:01 40.48060 -80.02668 3972 ft 156 kts 271°
2026-04-30 19:01 40.48061 -80.04068 3996 ft 152 kts 275°
2026-04-30 19:02 40.48130 -80.06339 3815 ft 152 kts 277°
2026-04-30 19:02 40.48180 -80.09064 3456 ft 148 kts 273°
2026-04-30 19:03 40.48116 -80.11771 3228 ft 152 kts 273°
2026-04-30 19:03 40.48339 -80.14548 2568 ft 145 kts 279°
2026-04-30 19:04 40.48380 -80.17101 1859 ft 141 kts 279°
2026-04-30 19:04 40.48512 -80.19685 1534 ft 140 kts 274°
2026-04-30 19:05 40.48587 -80.21927 1147 ft 95 kts 274°
2026-04-30 19:05 40.48623 -80.22957 1150 ft 27 kts 278°
2026-04-30 19:06 40.48703 -80.23209 1149 ft 17 kts 309°
2026-04-30 19:06 40.48796 -80.23486 1151 ft 47 kts 273°
2026-04-30 19:06 40.49002 -80.23857 1149 ft 30 kts 352°
2026-04-30 19:07 40.49268 -80.24066 1153 ft 13 kts
2026-04-30 19:07 40.49386 -80.24065 1154 ft 24 kts 338°